Location: Nashville
(36.1660°N, 86.7840°W)
Time: 03:33:29
(UTC-05:00)

EO-88 - Visible Passes

Search period start: 16 May 2022 00:00
Search period end: 26 May 2022 00:00
Orbit: 462 x 468 km, 97.3° (Epoch: 15 May)

Date Brightness Start Highest point End Pass type
(mag) Time Alt. Az. Time Alt. Az. Time Alt. Az.
16 May ? 22:12:44 38° NNE 22:12:44 38° NNE 22:15:04 10° N visible
17 May ? 21:42:02 22° NE 21:42:02 22° NE 21:44:14 10° NNE visible
17 May ? 23:16:00 12° WNW 23:16:00 12° WNW 23:16:35 10° NW visible
18 May ? 22:45:16 27° NW 22:45:16 27° NW 22:47:14 10° NNW visible
19 May ? 22:14:29 43° N 22:14:29 43° N 22:16:59 10° N visible
20 May ? 21:43:40 24° ENE 21:43:40 24° ENE 21:46:03 10° NNE visible
20 May ? 23:17:37 12° WNW 23:17:37 12° WNW 23:18:14 10° WNW visible
21 May ? 21:12:48 10° ENE 21:12:57 10° ENE 21:13:11 10° ENE visible
21 May ? 22:46:45 28° NW 22:46:45 28° NW 22:48:51 10° NNW visible
22 May ? 22:15:51 48° N 22:15:51 48° N 22:18:30 10° N visible
23 May ? 21:44:55 25° ENE 21:44:55 25° ENE 21:47:29 10° NNE visible
23 May ? 23:18:51 12° WNW 23:18:51 12° WNW 23:19:31 10° WNW visible
24 May ? 21:13:56 10° ENE 21:14:11 10° ENE 21:14:53 10° NE visible
24 May ? 22:47:51 29° WNW 22:47:51 29° WNW 22:50:04 10° NNW visible
25 May ? 22:16:50 54° N 22:16:50 54° N 22:19:37 10° N visible
